Home   Weather   Teresina   Past weeks
Flag for Brazil

Past Weather in Teresina, Piauí, Brazil — Yesterday and Last 2 Weeks

Now
93 °F

Scattered clouds.


Feels Like: 95 °F
Forecast: 93 / 75 °F
Wind: 7 mph from Southeast

Location: Teresina Aeroporto

Current Time: Jul 15, 2019 at 3:44:26 pm

Latest Report: Jul 15, 2019 at 3:00 pm


Visibility: N/A

Pressure: 29.83 "Hg

Humidity: 39%

Dew Point: 64 °F

Location of TeresinaLocation

Past Weather in Teresina — Graph

°F

Teresina Temperature Yesterday

Maximum temperature yesterday: 93 °F (at 3:00 pm)
Minimum temperature yesterday: 73 °F (at 5:00 am)
Average temperature yesterday: 82 °F

High & Low Weather Summary for the Past Weeks

 TemperatureHumidityPressure
High95 °F (Jul 3, 3:00 pm)94% (Jul 2, 4:00 am)30.07 "Hg (Jul 2, 4:00 am)
Low73 °F (Jul 1, 6:00 am)38% (Jul 9, 2:00 pm)29.77 "Hg (Jul 2, 3:00 pm)
Average83 °F68%29.91 "Hg
* Reported Jun 30 2:00 pm — Jul 15 2:00 pm, Teresina. Weather by CustomWeather, © 2019

Note: Actual official high and low records may vary slightly from our data, if they occured in-between our weather recording intervals... More about our weather records

Advertising

Teresina Weather History for the Previous 24 Hours

Scroll right to see more
 ConditionsComfort  
Time TempWeatherWind HumidityBarometerVisibility
2:00 pm
Mon, Jul 15
93 °FPartly sunny.6 mph41%29.83 "HgN/A
1:00 pm91 °FPartly sunny.8 mph46%29.86 "HgN/A
12:00 pm90 °FPartly sunny.8 mph52%29.89 "HgN/A
11:00 am88 °FPartly sunny.6 mph59%29.92 "HgN/A
10:00 am84 °FScattered clouds.3 mph66%29.92 "HgN/A
9:00 am81 °FScattered clouds.5 mph79%29.92 "HgN/A
8:00 am77 °FScattered clouds.3 mph89%29.92 "HgN/A
7:00 am77 °FPassing clouds.No wind89%29.92 "HgN/A
6:00 am73 °FClear.No wind94%29.89 "Hg10 mi
5:00 am73 °FClear.2 mph94%29.89 "Hg10 mi
4:00 am73 °FClear.No wind94%29.86 "Hg10 mi
3:00 am73 °FClear.No wind89%29.86 "Hg10 mi
2:00 am75 °FClear.5 mph89%29.89 "Hg10 mi
1:00 am77 °FClear.5 mph79%29.89 "Hg10 mi
12:00 am79 °FClear.3 mph74%29.89 "Hg10 mi
11:00 pm
Sun, Jul 14
79 °FClear.2 mph79%29.89 "Hg10 mi
10:00 pm79 °FClear.3 mph79%29.89 "Hg10 mi
9:00 pm81 °FClear.2 mph70%29.89 "Hg10 mi
8:00 pm82 °FClear.2 mph66%29.86 "Hg10 mi
7:00 pm84 °FClear.1 mph58%29.86 "Hg10 mi
6:00 pm88 °FPassing clouds.5 mph43%29.86 "HgN/A
5:00 pm91 °FPassing clouds.6 mph41%29.83 "HgN/A
4:00 pm91 °FScattered clouds.6 mph38%29.83 "HgN/A
3:00 pm93 °FScattered clouds.6 mph39%29.83 "HgN/A
Weather by CustomWeather, © 2019

See weather overview